SLE2247 HECA-EPKK

Flight info

Callsign SLE2247
Flight time N/A
Altitude 38000
Route CVO A16 RASDA M855 TOMBI UA16 AYT UQ26 BKZ UL615 DIGBO UQ26 TUDBU Q26 UPAMA DCT BUDOP DCT LITKU DCT KALIF DCT REDSI DCT MEBAN
Aircraft A333/H-SDE3GHIJ2J3J5M1RVWXY/LB2D1

Departure

Time 2026-05-06 05:29
Airport Cairo International Airport (HECA)

Arrival

Time N/A
Airport Kraków John Paul II International Airport (EPKK)
Time Latitude Longitude Altitude Speed Heading
2026-05-06 04:52 30.11194 31.40360 377 ft 0 kts 227°
2026-05-06 04:57 30.11208 31.40377 377 ft 4 kts 226°
2026-05-06 04:57 30.11223 31.40396 377 ft 4 kts 213°
2026-05-06 04:57 30.11242 31.40406 377 ft 4 kts 169°
2026-05-06 04:58 30.11262 31.40396 377 ft 4 kts 139°
2026-05-06 04:58 30.11275 31.40383 377 ft 1 kts 140°
2026-05-06 05:05 30.11263 31.40395 377 ft 4 kts 140°
2026-05-06 05:05 30.11223 31.40434 377 ft 11 kts 140°
2026-05-06 05:05 30.11166 31.40490 377 ft 11 kts 139°
2026-05-06 05:05 30.11096 31.40560 377 ft 13 kts 139°
2026-05-06 05:06 30.11030 31.40615 377 ft 11 kts 161°
2026-05-06 05:06 30.10976 31.40598 377 ft 7 kts 216°
2026-05-06 05:06 30.10927 31.40544 377 ft 13 kts 227°
2026-05-06 05:06 30.10863 31.40461 377 ft 16 kts 229°
2026-05-06 05:07 30.10779 31.40350 377 ft 19 kts 229°
2026-05-06 05:07 30.10682 31.40222 377 ft 23 kts 228°
2026-05-06 05:07 30.10567 31.40069 377 ft 27 kts 229°
2026-05-06 05:07 30.10442 31.39905 377 ft 28 kts 229°
2026-05-06 05:08 30.10317 31.39741 377 ft 28 kts 229°
2026-05-06 05:08 30.10202 31.39597 377 ft 20 kts 216°
2026-05-06 05:08 30.10124 31.39605 377 ft 12 kts 149°
2026-05-06 05:08 30.10046 31.39679 377 ft 6 kts 131°
2026-05-06 05:26 30.10046 31.39680 377 ft 0 kts 130°
2026-05-06 05:27 30.10041 31.39685 377 ft 1 kts 130°
2026-05-06 05:27 30.10033 31.39697 377 ft 2 kts 130°
2026-05-06 05:27 30.10017 31.39728 377 ft 12 kts 114°
2026-05-06 05:27 30.09994 31.39830 376 ft 13 kts 84°
2026-05-06 05:28 30.10020 31.39890 373 ft 0 kts 53°
2026-05-06 05:28 30.10020 31.39891 373 ft 0 kts 55°
2026-05-06 05:28 30.10088 31.39986 373 ft 48 kts 50°
2026-05-06 05:29 30.10464 31.40491 381 ft 116 kts 49°
2026-05-06 05:29 30.11130 31.41370 379 ft 173 kts 50°
2026-05-06 05:29 30.11980 31.42513 692 ft 190 kts 43°
2026-05-06 05:29 30.13111 31.43110 1529 ft 176 kts 359°
2026-05-06 05:30 30.14209 31.42650 2411 ft 172 kts 326°
2026-05-06 05:30 30.15283 31.41817 2557 ft 202 kts 326°
2026-05-06 05:30 30.16585 31.40922 2799 ft 229 kts 332°
2026-05-06 05:30 30.18092 31.40131 3316 ft 245 kts 338°
2026-05-06 05:31 30.19609 31.39481 3820 ft 253 kts 341°
2026-05-06 05:31 30.21129 31.38920 4883 ft 203 kts 342°
2026-05-06 05:31 30.22345 31.38504 5785 ft 168 kts 343°
2026-05-06 05:31 30.23390 31.38167 6616 ft 144 kts 344°
2026-05-06 05:32 30.24304 31.37890 7294 ft 131 kts 345°
2026-05-06 05:32 30.25221 31.37627 7640 ft 142 kts 345°
2026-05-06 05:32 30.26211 31.37356 7938 ft 157 kts 346°
2026-05-06 05:32 30.27453 31.37020 7644 ft 210 kts 346°
2026-05-06 05:33 30.28961 31.36616 7807 ft 236 kts 346°
2026-05-06 05:33 30.30621 31.36175 8102 ft 254 kts 346°
2026-05-06 05:33 30.32394 31.35704 8436 ft 269 kts 346°
2026-05-06 05:33 30.34266 31.35208 8830 ft 282 kts 347°
2026-05-06 05:34 30.36189 31.34698 9502 ft 284 kts 347°
2026-05-06 05:34 30.38126 31.34186 10154 ft 287 kts 347°
2026-05-06 05:34 30.40132 31.33656 10448 ft 305 kts 347°
2026-05-06 05:34 30.42279 31.33093 10664 ft 324 kts 347°
2026-05-06 05:35 30.44548 31.32582 10956 ft 341 kts 349°
2026-05-06 05:35 30.46940 31.32133 11265 ft 355 kts 351°
2026-05-06 05:35 30.49433 31.31712 11597 ft 368 kts 352°
2026-05-06 05:35 30.51981 31.31308 12036 ft 376 kts 352°
2026-05-06 05:36 30.54584 31.30913 12655 ft 379 kts 352°
2026-05-06 05:36 30.57219 31.30525 13259 ft 383 kts 352°
2026-05-06 05:36 30.59876 31.30142 13856 ft 386 kts 353°
2026-05-06 05:36 30.62559 31.29762 14443 ft 389 kts 353°
2026-05-06 05:37 30.65263 31.29380 15019 ft 393 kts 353°
2026-05-06 05:37 30.67990 31.28999 15596 ft 396 kts 353°
2026-05-06 05:37 30.70742 31.28618 16167 ft 399 kts 353°
2026-05-06 05:37 30.73514 31.28234 16746 ft 403 kts 353°
2026-05-06 05:38 30.76276 31.27852 17288 ft 406 kts 353°
2026-05-06 05:38 30.79094 31.27463 17836 ft 410 kts 353°
2026-05-06 05:38 30.81925 31.27072 18372 ft 413 kts 353°
2026-05-06 05:38 30.84794 31.26677 18885 ft 416 kts 353°
2026-05-06 05:39 30.87675 31.26280 19386 ft 419 kts 353°
2026-05-06 05:39 30.90587 31.25880 19896 ft 422 kts 353°
2026-05-06 05:39 30.93511 31.25477 20358 ft 425 kts 353°
2026-05-06 05:39 30.96465 31.25071 20831 ft 428 kts 353°
2026-05-06 05:40 30.99431 31.24662 21299 ft 431 kts 353°
2026-05-06 05:40 31.02416 31.24250 21735 ft 434 kts 353°
2026-05-06 05:40 31.05431 31.23834 22177 ft 437 kts 353°
2026-05-06 05:40 31.08467 31.23416 22619 ft 440 kts 353°
2026-05-06 05:41 31.11481 31.23000 23044 ft 443 kts 353°
2026-05-06 05:41 31.14545 31.22576 23459 ft 445 kts 353°
2026-05-06 05:41 31.17639 31.22149 23871 ft 448 kts 353°
2026-05-06 05:41 31.20752 31.21719 24270 ft 451 kts 353°
2026-05-06 05:42 31.23884 31.21286 24667 ft 454 kts 353°
2026-05-06 05:42 31.27025 31.20852 25066 ft 456 kts 353°
2026-05-06 05:42 31.30194 31.20412 25449 ft 459 kts 353°
2026-05-06 05:42 31.33371 31.19972 25834 ft 462 kts 353°
2026-05-06 05:43 31.36577 31.19527 26206 ft 464 kts 353°
2026-05-06 05:43 31.39791 31.19081 26566 ft 467 kts 353°
2026-05-06 05:43 31.43022 31.18632 26925 ft 470 kts 353°
2026-05-06 05:43 31.46238 31.18185 27276 ft 472 kts 353°
2026-05-06 05:44 31.49504 31.17731 27618 ft 475 kts 353°
2026-05-06 05:44 31.52798 31.17273 27965 ft 477 kts 353°
2026-05-06 05:44 31.56115 31.16811 28289 ft 479 kts 353°
2026-05-06 05:44 31.59443 31.16347 28599 ft 482 kts 353°
2026-05-06 05:45 31.62786 31.15880 28894 ft 484 kts 353°
2026-05-06 05:45 31.66131 31.15414 29267 ft 484 kts 353°
2026-05-06 05:45 31.69476 31.14946 29677 ft 483 kts 353°
2026-05-06 05:45 31.72814 31.14479 30092 ft 483 kts 353°
2026-05-06 05:46 31.76154 31.14013 30507 ft 482 kts 353°
2026-05-06 05:46 31.79482 31.13546 30920 ft 481 kts 353°
2026-05-06 05:46 31.82801 31.13082 31341 ft 480 kts 353°
2026-05-06 05:46 31.86078 31.12622 31750 ft 479 kts 353°
2026-05-06 05:47 31.89389 31.12157 32160 ft 479 kts 353°
2026-05-06 05:47 31.92696 31.11694 32572 ft 478 kts 353°
2026-05-06 05:47 31.95998 31.11229 32972 ft 477 kts 353°
2026-05-06 05:47 31.99295 31.10766 33382 ft 476 kts 353°
2026-05-06 05:48 32.02585 31.10303 33785 ft 475 kts 353°
2026-05-06 05:48 32.05872 31.09840 34189 ft 475 kts 353°
2026-05-06 05:48 32.09149 31.09379 34593 ft 474 kts 353°
2026-05-06 05:48 32.12419 31.08917 34972 ft 473 kts 353°
2026-05-06 05:49 32.15695 31.08455 35365 ft 472 kts 353°
2026-05-06 05:49 32.18958 31.07994 35735 ft 472 kts 353°
2026-05-06 05:49 32.22180 31.07538 36097 ft 471 kts 353°
2026-05-06 05:49 32.25437 31.07078 36443 ft 471 kts 353°
2026-05-06 05:50 32.28692 31.06618 36772 ft 471 kts 353°
2026-05-06 05:50 32.31944 31.06156 37080 ft 471 kts 353°
2026-05-06 05:50 32.35199 31.05695 37391 ft 471 kts 353°
2026-05-06 05:50 32.38453 31.05234 37689 ft 470 kts 353°
2026-05-06 05:51 32.41670 31.04776 37862 ft 462 kts 353°
2026-05-06 05:51 32.44862 31.04323 37935 ft 462 kts 353°
2026-05-06 05:51 32.51331 31.03403 37991 ft 472 kts 353°
2026-05-06 05:52 32.57823 31.02477 37996 ft 473 kts 353°
2026-05-06 05:52 32.64342 31.01547 37998 ft 469 kts 353°
2026-05-06 05:53 32.70825 31.00620 37999 ft 469 kts 353°
2026-05-06 05:53 32.77327 30.99690 37999 ft 471 kts 353°
2026-05-06 05:54 32.83797 30.98762 37998 ft 471 kts 353°
2026-05-06 05:54 32.90318 30.97827 37999 ft 470 kts 353°
2026-05-06 05:55 32.96799 30.96896 38000 ft 470 kts 353°
2026-05-06 05:55 33.03302 30.95960 37999 ft 471 kts 353°
2026-05-06 05:56 33.09793 30.95191 37998 ft 471 kts 356°
2026-05-06 05:56 33.16345 30.94792 37999 ft 470 kts 357°
2026-05-06 05:57 33.22884 30.94483 38000 ft 470 kts 358°
2026-05-06 05:57 33.29430 30.94198 38001 ft 471 kts 358°
2026-05-06 05:58 33.35983 30.93920 37999 ft 471 kts 358°
2026-05-06 05:58 33.42488 30.93647 38000 ft 470 kts 358°
2026-05-06 05:59 33.49029 30.93373 38000 ft 470 kts 358°
2026-05-06 05:59 33.55572 30.93099 38000 ft 471 kts 358°
2026-05-06 06:00 33.62125 30.92826 38000 ft 471 kts 358°
2026-05-06 06:00 33.68687 30.92552 38000 ft 470 kts 358°
2026-05-06 06:01 33.75196 30.92280 38000 ft 470 kts 358°
2026-05-06 06:01 33.81726 30.92006 38000 ft 470 kts 358°
2026-05-06 06:02 33.88288 30.91731 38001 ft 471 kts 358°
2026-05-06 06:02 33.94841 30.91456 37999 ft 471 kts 358°
2026-05-06 06:03 34.01390 30.91181 38001 ft 470 kts 358°
2026-05-06 06:03 34.07931 30.90906 38000 ft 470 kts 358°
2026-05-06 06:04 34.14494 30.90630 38001 ft 471 kts 358°
2026-05-06 06:04 34.21012 30.90354 37999 ft 471 kts 358°
2026-05-06 06:05 34.27557 30.90077 38001 ft 470 kts 358°
2026-05-06 06:05 34.34105 30.89800 38000 ft 470 kts 358°
2026-05-06 06:06 34.40662 30.89521 38001 ft 471 kts 358°
2026-05-06 06:06 34.47176 30.89245 37999 ft 471 kts 358°
2026-05-06 06:07 34.53724 30.88967 38001 ft 470 kts 358°
2026-05-06 06:07 34.60268 30.88687 38000 ft 470 kts 358°
2026-05-06 06:08 34.66808 30.88408 38001 ft 471 kts 358°
2026-05-06 06:08 34.73361 30.88128 37999 ft 471 kts 358°
2026-05-06 06:09 34.79909 30.87848 38001 ft 470 kts 358°
2026-05-06 06:09 34.86447 30.87567 37999 ft 470 kts 358°
2026-05-06 06:10 34.92991 30.87285 38001 ft 471 kts 358°
2026-05-06 06:10 34.99500 30.87006 37999 ft 471 kts 358°
2026-05-06 06:11 35.06066 30.86722 38001 ft 470 kts 358°
2026-05-06 06:11 35.12613 30.86439 37999 ft 470 kts 358°
2026-05-06 06:12 35.19116 30.86158 38001 ft 470 kts 358°
2026-05-06 06:12 35.25672 30.85875 37999 ft 471 kts 358°
2026-05-06 06:13 35.32236 30.85589 38001 ft 471 kts 358°
2026-05-06 06:13 35.38783 30.85305 37999 ft 470 kts 358°
2026-05-06 06:14 35.45268 30.85023 38001 ft 470 kts 358°
2026-05-06 06:14 35.51817 30.84737 38000 ft 471 kts 358°
2026-05-06 06:15 35.58382 30.84450 38001 ft 471 kts 358°
2026-05-06 06:15 35.64916 30.84164 37999 ft 470 kts 358°
2026-05-06 06:16 35.71455 30.83878 38001 ft 470 kts 358°
2026-05-06 06:16 35.78002 30.83590 38000 ft 471 kts 358°
2026-05-06 06:17 35.84544 30.83303 38001 ft 471 kts 358°
2026-05-06 06:17 35.89995 30.83063 37999 ft 470 kts 358°
2026-05-06 06:18 35.96535 30.82774 38001 ft 470 kts 358°
2026-05-06 06:18 36.03078 30.82497 38000 ft 471 kts 358°
2026-05-06 06:19 36.09643 30.82256 38000 ft 471 kts 358°
2026-05-06 06:19 36.16152 30.82031 38000 ft 470 kts 358°
2026-05-06 06:20 36.22695 30.81810 38000 ft 470 kts 358°
2026-05-06 06:20 36.29238 30.81589 38001 ft 470 kts 358°
2026-05-06 06:21 36.35791 30.81367 38000 ft 471 kts 358°
2026-05-06 06:21 36.42356 30.81144 38000 ft 471 kts 358°
2026-05-06 06:22 36.48906 30.80921 38000 ft 470 kts 358°
2026-05-06 06:22 36.55451 30.80698 38001 ft 470 kts 358°
2026-05-06 06:23 36.61971 30.80475 38000 ft 471 kts 358°
2026-05-06 06:23 36.68529 30.80252 38000 ft 471 kts 358°
2026-05-06 06:24 36.75091 30.80029 38000 ft 470 kts 358°
2026-05-06 06:24 36.81628 30.79808 38001 ft 470 kts 358°
2026-05-06 06:25 36.88185 30.79579 37999 ft 471 kts 357°
2026-05-06 06:25 36.94605 30.78074 38003 ft 471 kts 345°
2026-05-06 06:26 36.97732 30.77037 38000 ft 471 kts 345°
2026-05-06 06:26 37.04055 30.74823 38000 ft 471 kts 343°
2026-05-06 06:27 37.10360 30.72540 38002 ft 472 kts 343°
2026-05-06 06:27 37.16671 30.70228 38001 ft 473 kts 343°
2026-05-06 06:28 37.23006 30.67891 37999 ft 474 kts 343°
2026-05-06 06:28 37.29364 30.65537 38002 ft 479 kts 343°
2026-05-06 06:29 37.35736 30.63168 38002 ft 481 kts 343°
2026-05-06 06:29 37.42135 30.60782 38001 ft 479 kts 343°
2026-05-06 06:30 37.48506 30.58402 37999 ft 476 kts 343°
2026-05-06 06:30 37.54866 30.56019 38002 ft 476 kts 343°
2026-05-06 06:31 37.61245 30.53624 38001 ft 479 kts 343°
2026-05-06 06:31 37.67588 30.51238 37999 ft 478 kts 343°
2026-05-06 06:32 37.73996 30.48822 38001 ft 482 kts 343°
2026-05-06 06:32 37.80412 30.46398 38000 ft 479 kts 343°
2026-05-06 06:33 37.86799 30.43981 38002 ft 479 kts 343°
2026-05-06 06:33 37.93172 30.41566 38000 ft 476 kts 343°
2026-05-06 06:34 37.99504 30.39160 38001 ft 479 kts 343°
2026-05-06 06:34 38.05924 30.36717 38001 ft 481 kts 343°
2026-05-06 06:35 38.12314 30.34280 37999 ft 478 kts 343°
2026-05-06 06:35 38.18699 30.31841 37998 ft 478 kts 343°
2026-05-06 06:36 38.25024 30.29420 38001 ft 479 kts 343°
2026-05-06 06:36 38.31425 30.26964 38001 ft 480 kts 343°
2026-05-06 06:37 38.37822 30.24507 38000 ft 479 kts 343°
2026-05-06 06:37 38.44182 30.22059 37999 ft 476 kts 343°
2026-05-06 06:38 38.50533 30.19610 38000 ft 476 kts 343°
2026-05-06 06:38 38.56849 30.17170 38000 ft 478 kts 343°
2026-05-06 06:39 38.63220 30.14704 38000 ft 479 kts 343°
2026-05-06 06:39 38.69611 30.12225 38002 ft 482 kts 343°
2026-05-06 06:40 38.76035 30.09730 38001 ft 481 kts 343°
2026-05-06 06:40 38.81677 30.07533 38000 ft 478 kts 343°
2026-05-06 06:42 38.86262 30.05746 38001 ft 479 kts 343°
2026-05-06 06:42 38.92622 30.03263 38000 ft 476 kts 343°
2026-05-06 06:43 38.98964 30.00782 38000 ft 477 kts 343°
2026-05-06 06:43 39.05344 29.98282 38000 ft 480 kts 343°
2026-05-06 06:44 39.11723 29.95777 38000 ft 478 kts 343°
2026-05-06 06:44 39.18070 29.93279 38000 ft 476 kts 342°
2026-05-06 06:45 39.24377 29.90793 38000 ft 477 kts 342°
2026-05-06 06:45 39.30742 29.88279 38002 ft 479 kts 342°
2026-05-06 06:46 39.37133 29.85750 38001 ft 480 kts 342°
2026-05-06 06:46 39.43497 29.83228 37999 ft 482 kts 342°
2026-05-06 06:47 39.49898 29.80685 37998 ft 479 kts 342°
2026-05-06 06:47 39.56235 29.78164 38000 ft 475 kts 342°
2026-05-06 06:48 39.62574 29.75635 38002 ft 478 kts 342°
2026-05-06 06:48 39.68963 29.73083 38002 ft 480 kts 342°
2026-05-06 06:49 39.75334 29.70532 38001 ft 478 kts 342°
2026-05-06 06:49 39.81640 29.68002 38000 ft 477 kts 342°
2026-05-06 06:50 39.87994 29.65450 38002 ft 479 kts 342°
2026-05-06 06:50 39.94378 29.62880 37999 ft 478 kts 342°
2026-05-06 06:51 40.00701 29.60328 37998 ft 471 kts 342°
2026-05-06 06:51 40.06916 29.57817 37999 ft 470 kts 342°
2026-05-06 06:52 40.13186 29.55277 38000 ft 473 kts 342°
2026-05-06 06:52 40.19484 29.52721 38000 ft 474 kts 342°
2026-05-06 06:53 40.25766 29.50167 38000 ft 471 kts 342°
2026-05-06 06:53 40.32022 29.47618 38000 ft 471 kts 342°
2026-05-06 06:54 40.38281 29.45063 38003 ft 477 kts 342°
2026-05-06 06:54 40.44591 29.42482 37999 ft 471 kts 342°
2026-05-06 06:55 40.50830 29.39925 38000 ft 468 kts 342°
2026-05-06 06:55 40.57076 29.37361 38003 ft 474 kts 342°
2026-05-06 06:56 40.63396 29.34760 37999 ft 474 kts 342°
2026-05-06 06:56 40.69616 29.32197 37999 ft 468 kts 342°
2026-05-06 06:57 40.75831 29.29630 38000 ft 468 kts 342°
2026-05-06 06:57 40.82073 29.27046 37999 ft 471 kts 342°
2026-05-06 06:58 40.88335 29.24450 37999 ft 471 kts 342°
2026-05-06 06:58 40.94540 29.21870 38003 ft 471 kts 342°
2026-05-06 06:59 41.00845 29.19245 38001 ft 472 kts 342°
2026-05-06 06:59 41.07068 29.16646 38001 ft 471 kts 342°
2026-05-06 07:00 41.12958 29.12976 38020 ft 469 kts 319°
2026-05-06 07:00 41.15154 29.09774 38016 ft 470 kts 307°
2026-05-06 07:00 41.17029 29.06282 38007 ft 471 kts 304°
2026-05-06 07:01 41.20662 28.99038 37998 ft 470 kts 303°
2026-05-06 07:01 41.24207 28.91750 37996 ft 469 kts 302°
2026-05-06 07:02 41.27755 28.84442 37996 ft 469 kts 303°
2026-05-06 07:02 41.31288 28.77206 37999 ft 469 kts 303°
2026-05-06 07:03 41.34850 28.69942 37998 ft 468 kts 303°
2026-05-06 07:03 41.38419 28.62684 37997 ft 469 kts 303°
2026-05-06 07:04 41.41997 28.55411 37998 ft 469 kts 303°
2026-05-06 07:04 41.45582 28.48127 37998 ft 469 kts 303°
2026-05-06 07:05 41.49419 28.41113 38001 ft 468 kts 311°
2026-05-06 07:05 41.53872 28.34812 38000 ft 469 kts 314°
2026-05-06 07:06 41.58465 28.28608 38000 ft 470 kts 315°
2026-05-06 07:06 41.63103 28.22431 38000 ft 469 kts 315°
2026-05-06 07:07 41.67704 28.16327 37999 ft 468 kts 315°
2026-05-06 07:07 41.72340 28.10175 38000 ft 469 kts 315°
2026-05-06 07:08 41.76976 28.04016 37999 ft 470 kts 315°
2026-05-06 07:08 41.80834 27.98881 38000 ft 469 kts 315°
2026-05-06 07:09 41.85462 27.92709 38000 ft 469 kts 315°
2026-05-06 07:09 41.90094 27.86518 38001 ft 470 kts 315°
2026-05-06 07:10 41.94703 27.80338 38000 ft 471 kts 315°
2026-05-06 07:10 41.99323 27.74078 38001 ft 471 kts 314°
2026-05-06 07:11 42.03921 27.67810 38001 ft 470 kts 314°
2026-05-06 07:11 42.08514 27.61527 38002 ft 471 kts 314°
2026-05-06 07:12 42.13085 27.55254 38001 ft 472 kts 314°
2026-05-06 07:12 42.17686 27.48924 38001 ft 471 kts 314°
2026-05-06 07:13 42.22272 27.42601 38001 ft 471 kts 314°
2026-05-06 07:13 42.26852 27.36270 38001 ft 471 kts 314°
2026-05-06 07:14 42.31394 27.29979 37999 ft 470 kts 314°
2026-05-06 07:14 42.35952 27.23653 38001 ft 469 kts 314°
2026-05-06 07:15 42.40500 27.17323 38000 ft 469 kts 314°
2026-05-06 07:15 42.45056 27.10970 38001 ft 470 kts 314°
2026-05-06 07:16 42.49612 27.04602 38000 ft 470 kts 314°
2026-05-06 07:16 42.54170 26.98218 38001 ft 470 kts 314°
2026-05-06 07:17 42.58718 26.91832 38000 ft 470 kts 314°
2026-05-06 07:17 42.63267 26.85431 38000 ft 471 kts 314°
2026-05-06 07:18 42.67810 26.79024 38000 ft 470 kts 314°
2026-05-06 07:18 42.72326 26.72642 38000 ft 472 kts 314°
2026-05-06 07:19 42.76873 26.66199 37998 ft 471 kts 314°
2026-05-06 07:19 42.81418 26.59746 38001 ft 472 kts 313°
2026-05-06 07:20 42.85970 26.53268 37999 ft 473 kts 313°
2026-05-06 07:20 42.90497 26.46813 38002 ft 475 kts 313°
2026-05-06 07:21 42.95053 26.40299 38001 ft 473 kts 313°
2026-05-06 07:21 42.99591 26.33796 38000 ft 472 kts 313°
2026-05-06 07:22 43.04136 26.27268 38000 ft 476 kts 313°
2026-05-06 07:22 43.08696 26.20704 38001 ft 473 kts 313°
2026-05-06 07:23 43.13213 26.14187 38001 ft 470 kts 313°
2026-05-06 07:23 43.17714 26.07677 38001 ft 472 kts 313°
2026-05-06 07:24 43.22208 26.01163 38001 ft 472 kts 313°
2026-05-06 07:24 43.26707 25.94625 37998 ft 469 kts 313°
2026-05-06 07:25 43.31193 25.88093 37999 ft 470 kts 313°
2026-05-06 07:25 43.35689 25.81530 38000 ft 471 kts 313°
2026-05-06 07:26 43.40147 25.75008 38000 ft 471 kts 313°
2026-05-06 07:26 43.44635 25.68424 37999 ft 470 kts 313°
2026-05-06 07:27 43.49094 25.61868 37999 ft 469 kts 313°
2026-05-06 07:27 43.53562 25.55282 38000 ft 470 kts 313°
2026-05-06 07:28 43.58026 25.48684 37999 ft 470 kts 313°
2026-05-06 07:28 43.64996 25.39276 38001 ft 469 kts 318°
2026-05-06 07:29 43.69894 25.33318 38000 ft 469 kts 319°
2026-05-06 07:29 43.74832 25.27384 37999 ft 470 kts 319°
2026-05-06 07:30 43.79756 25.21478 38000 ft 470 kts 319°
2026-05-06 07:30 43.84698 25.15542 37999 ft 469 kts 319°
2026-05-06 07:31 43.89632 25.09606 38001 ft 469 kts 319°
2026-05-06 07:31 43.94567 25.03656 38000 ft 470 kts 319°
2026-05-06 07:32 43.99472 24.97731 37999 ft 470 kts 319°
2026-05-06 07:32 44.04404 24.91758 38000 ft 470 kts 319°
2026-05-06 07:33 44.09336 24.85772 38000 ft 469 kts 319°
2026-05-06 07:33 44.14255 24.79788 38000 ft 470 kts 319°
2026-05-06 07:34 44.19180 24.73782 38000 ft 471 kts 319°
2026-05-06 07:34 44.24078 24.67797 38000 ft 470 kts 319°
2026-05-06 07:35 44.28989 24.61783 38000 ft 470 kts 318°
2026-05-06 07:35 44.33901 24.55752 38002 ft 470 kts 318°
2026-05-06 07:36 44.38823 24.49695 38001 ft 471 kts 318°
2026-05-06 07:36 44.43738 24.43633 37999 ft 470 kts 318°
2026-05-06 07:37 44.48646 24.37566 37999 ft 470 kts 318°
2026-05-06 07:37 44.53544 24.31496 38001 ft 470 kts 318°
2026-05-06 07:38 44.58421 24.25438 38000 ft 471 kts 318°
2026-05-06 07:38 44.63319 24.19341 38001 ft 470 kts 318°
2026-05-06 07:39 44.68213 24.13232 38001 ft 471 kts 318°
2026-05-06 07:39 44.73116 24.07100 38000 ft 472 kts 318°
2026-05-06 07:40 44.78019 24.00952 38001 ft 471 kts 318°
2026-05-06 07:40 44.82888 23.94832 38002 ft 470 kts 318°
2026-05-06 07:41 44.87771 23.88682 38002 ft 471 kts 318°
2026-05-06 07:41 44.92670 23.82496 38002 ft 472 kts 318°
2026-05-06 07:42 44.97559 23.76307 37999 ft 471 kts 318°
2026-05-06 07:42 45.02446 23.70106 38000 ft 472 kts 318°
2026-05-06 07:43 45.07303 23.63928 38000 ft 473 kts 318°
2026-05-06 07:43 45.12186 23.57703 38000 ft 472 kts 317°
2026-05-06 07:44 45.17063 23.51472 38001 ft 472 kts 317°
2026-05-06 07:44 45.21945 23.45218 38002 ft 475 kts 317°
2026-05-06 07:45 45.26859 23.38906 38001 ft 476 kts 317°
2026-05-06 07:45 45.31760 23.32597 37999 ft 475 kts 317°
2026-05-06 07:46 45.36678 23.26252 38001 ft 478 kts 317°
2026-05-06 07:46 45.41559 23.19938 37999 ft 475 kts 317°
2026-05-06 07:47 45.46452 23.13594 37999 ft 475 kts 317°
2026-05-06 07:47 45.51317 23.07270 37999 ft 471 kts 317°
2026-05-06 07:48 45.56153 23.00967 38000 ft 471 kts 317°
2026-05-06 07:48 45.61011 22.94621 37999 ft 473 kts 317°
2026-05-06 07:49 45.65855 22.88278 38000 ft 471 kts 317°
2026-05-06 07:49 45.70692 22.81928 38000 ft 472 kts 317°
2026-05-06 07:50 45.75509 22.75589 38000 ft 475 kts 317°
2026-05-06 07:50 45.80367 22.69179 38001 ft 475 kts 317°
2026-05-06 07:51 45.85236 22.62741 38000 ft 474 kts 317°
2026-05-06 07:51 45.90059 22.56347 38000 ft 470 kts 317°
2026-05-06 07:52 45.94851 22.49978 38001 ft 469 kts 317°
2026-05-06 07:52 45.99618 22.43626 38001 ft 471 kts 317°
2026-05-06 07:53 46.04429 22.37199 38000 ft 471 kts 317°
2026-05-06 07:53 46.09227 22.30775 38002 ft 471 kts 317°
2026-05-06 07:54 46.14036 22.24318 38000 ft 473 kts 317°
2026-05-06 07:54 46.18826 22.17872 38000 ft 473 kts 317°
2026-05-06 07:55 46.23634 22.11385 37999 ft 473 kts 316°
2026-05-06 07:55 46.28438 22.04888 38000 ft 471 kts 316°
2026-05-06 07:56 46.33209 21.98418 38000 ft 470 kts 316°
2026-05-06 07:56 46.37171 21.93033 38000 ft 470 kts 316°
2026-05-06 07:57 46.41939 21.86535 38000 ft 471 kts 316°
2026-05-06 07:57 46.47469 21.78981 38000 ft 469 kts 316°
2026-05-06 07:58 46.51451 21.73527 38000 ft 469 kts 316°
2026-05-06 07:58 46.56198 21.67007 38000 ft 470 kts 316°
2026-05-06 07:59 46.60923 21.60501 37999 ft 470 kts 316°
2026-05-06 07:59 46.65670 21.53946 37999 ft 470 kts 316°
2026-05-06 08:00 46.70590 21.47678 38001 ft 469 kts 320°
2026-05-06 08:00 46.75622 21.41609 38000 ft 470 kts 320°
2026-05-06 08:01 46.80692 21.35557 37999 ft 470 kts 320°
2026-05-06 08:01 46.85759 21.29514 38000 ft 470 kts 320°
2026-05-06 08:02 46.90788 21.23509 38000 ft 469 kts 320°
2026-05-06 08:02 46.95844 21.17457 38001 ft 470 kts 320°
2026-05-06 08:03 47.00904 21.11384 38001 ft 470 kts 320°
2026-05-06 08:03 47.05967 21.05292 37999 ft 470 kts 320°
2026-05-06 08:04 47.11015 20.99202 38000 ft 469 kts 320°
2026-05-06 08:04 47.16058 20.93104 38001 ft 470 kts 320°
2026-05-06 08:05 47.21108 20.86980 38000 ft 470 kts 320°
2026-05-06 08:05 47.26156 20.80842 38000 ft 470 kts 320°
2026-05-06 08:06 47.31160 20.74744 38001 ft 469 kts 320°
2026-05-06 08:06 47.36196 20.68591 38000 ft 470 kts 320°
2026-05-06 08:07 47.41206 20.62453 38000 ft 470 kts 320°
2026-05-06 08:07 47.46250 20.56257 38000 ft 470 kts 320°
2026-05-06 08:08 47.51272 20.50074 38000 ft 469 kts 320°
2026-05-06 08:08 47.56296 20.43871 38000 ft 470 kts 320°
2026-05-06 08:09 47.61285 20.37696 38000 ft 470 kts 320°
2026-05-06 08:09 47.66312 20.31455 38000 ft 470 kts 320°
2026-05-06 08:10 47.71323 20.25222 38000 ft 469 kts 320°
2026-05-06 08:10 47.76329 20.18978 38001 ft 470 kts 320°
2026-05-06 08:11 47.81307 20.12750 38000 ft 471 kts 320°
2026-05-06 08:11 47.86322 20.06462 38000 ft 472 kts 320°
2026-05-06 08:12 47.91355 20.00136 37999 ft 474 kts 320°
2026-05-06 08:12 47.94100 19.97424 38006 ft 473 kts 335°
2026-05-06 08:12 47.97229 19.95974 38019 ft 472 kts 350°
2026-05-06 08:13 48.03760 19.94776 38001 ft 472 kts 354°
2026-05-06 08:13 48.10259 19.93720 37999 ft 472 kts 353°
2026-05-06 08:14 48.16797 19.92534 37945 ft 474 kts 352°
2026-05-06 08:14 48.23383 19.91170 37128 ft 485 kts 351°
2026-05-06 08:15 48.26726 19.90418 36524 ft 486 kts 351°
2026-05-06 08:15 48.30053 19.89639 36004 ft 480 kts 351°
2026-05-06 08:15 48.33337 19.88843 35476 ft 476 kts 351°
2026-05-06 08:15 48.36551 19.88046 34962 ft 472 kts 350°
2026-05-06 08:16 48.39783 19.87227 34429 ft 469 kts 350°
2026-05-06 08:16 48.42993 19.86399 33913 ft 466 kts 350°
2026-05-06 08:16 48.46186 19.85563 33377 ft 464 kts 350°
2026-05-06 08:16 48.49357 19.84724 32864 ft 462 kts 349°
2026-05-06 08:17 48.52514 19.83878 32328 ft 460 kts 349°
2026-05-06 08:17 48.55657 19.83029 31815 ft 458 kts 349°
2026-05-06 08:17 48.58749 19.82187 31286 ft 455 kts 349°
2026-05-06 08:17 48.61860 19.81335 30767 ft 453 kts 349°
2026-05-06 08:18 48.64955 19.80482 30238 ft 451 kts 349°
2026-05-06 08:18 48.68036 19.79628 29715 ft 448 kts 349°
2026-05-06 08:18 48.71100 19.78775 29186 ft 446 kts 349°
2026-05-06 08:18 48.74153 19.77925 28665 ft 444 kts 349°
2026-05-06 08:19 48.77185 19.77077 28136 ft 441 kts 349°
2026-05-06 08:19 48.80185 19.76235 27603 ft 434 kts 349°
2026-05-06 08:19 48.83062 19.75426 27041 ft 417 kts 349°
2026-05-06 08:19 48.85874 19.74634 26516 ft 404 kts 349°
2026-05-06 08:20 48.88616 19.73860 25987 ft 397 kts 349°
2026-05-06 08:20 48.91323 19.73093 25464 ft 395 kts 349°
2026-05-06 08:20 48.94031 19.72325 24942 ft 396 kts 349°
2026-05-06 08:20 48.96744 19.71555 24414 ft 395 kts 349°
2026-05-06 08:21 48.99437 19.70788 23887 ft 392 kts 349°
2026-05-06 08:21 49.02106 19.70029 23359 ft 388 kts 349°
2026-05-06 08:21 49.04740 19.69278 22831 ft 383 kts 349°
2026-05-06 08:21 49.07315 19.68543 22311 ft 377 kts 349°
2026-05-06 08:22 49.09882 19.67810 21785 ft 373 kts 349°
2026-05-06 08:22 49.12427 19.67082 21263 ft 372 kts 349°
2026-05-06 08:22 49.14965 19.66356 20738 ft 370 kts 349°
2026-05-06 08:22 49.17501 19.65629 20213 ft 368 kts 349°
2026-05-06 08:23 49.20015 19.64905 19693 ft 366 kts 349°
2026-05-06 08:23 49.22521 19.64291 19171 ft 363 kts 355°
2026-05-06 08:23 49.25041 19.64096 18651 ft 361 kts 359°
2026-05-06 08:23 49.27511 19.64073 18132 ft 357 kts 360°
2026-05-06 08:24 49.29982 19.64109 17603 ft 353 kts
2026-05-06 08:24 49.32429 19.64181 17074 ft 350 kts
2026-05-06 08:24 49.34856 19.64272 16552 ft 347 kts
2026-05-06 08:24 49.37264 19.64367 16025 ft 344 kts
2026-05-06 08:25 49.39649 19.64463 15498 ft 341 kts
2026-05-06 08:25 49.42002 19.64609 14966 ft 335 kts
2026-05-06 08:25 49.44207 19.65709 14468 ft 335 kts 30°
2026-05-06 08:25 49.46120 19.67756 13956 ft 336 kts 38°
2026-05-06 08:26 49.47929 19.70023 13449 ft 333 kts 40°
2026-05-06 08:26 49.49663 19.72355 13010 ft 329 kts 42°
2026-05-06 08:26 49.51335 19.74745 12570 ft 327 kts 43°
2026-05-06 08:26 49.52945 19.77151 12132 ft 327 kts 44°
2026-05-06 08:27 49.54556 19.79630 11681 ft 325 kts 45°
2026-05-06 08:27 49.56130 19.82105 11232 ft 318 kts 46°
2026-05-06 08:27 49.57624 19.84495 10787 ft 302 kts 46°
2026-05-06 08:27 49.59038 19.86777 10333 ft 288 kts 46°
2026-05-06 08:28 49.60397 19.88978 9881 ft 279 kts 46°
2026-05-06 08:28 49.61724 19.91142 9438 ft 276 kts 46°
2026-05-06 08:28 49.63043 19.93300 8990 ft 277 kts 46°
2026-05-06 08:28 49.64366 19.95466 8533 ft 276 kts 46°
2026-05-06 08:29 49.65659 19.97581 8157 ft 273 kts 46°
2026-05-06 08:29 49.66950 19.99699 7910 ft 271 kts 46°
2026-05-06 08:29 49.68249 20.01832 7648 ft 273 kts 46°
2026-05-06 08:29 49.69547 20.03963 7370 ft 271 kts 46°
2026-05-06 08:30 49.70834 20.06078 7103 ft 269 kts 46°
2026-05-06 08:30 49.72114 20.08190 6825 ft 269 kts 46°
2026-05-06 08:30 49.73394 20.10303 6572 ft 269 kts 46°
2026-05-06 08:30 49.74664 20.12401 6297 ft 266 kts 47°
2026-05-06 08:31 49.75927 20.14492 6033 ft 266 kts 46°
2026-05-06 08:31 49.77324 20.16308 5751 ft 263 kts 25°
2026-05-06 08:31 49.79097 20.16915 5506 ft 264 kts 354°
2026-05-06 08:31 49.80783 20.16075 5344 ft 257 kts 326°
2026-05-06 08:32 49.82224 20.14415 5247 ft 261 kts 321°
2026-05-06 08:32 49.83639 20.12657 5214 ft 259 kts 321°
2026-05-06 08:32 49.85041 20.10900 5198 ft 259 kts 320°
2026-05-06 08:32 49.86439 20.09134 5197 ft 260 kts 320°
2026-05-06 08:33 49.87841 20.07369 5189 ft 258 kts 320°
2026-05-06 08:33 49.89245 20.05620 5194 ft 259 kts 321°
2026-05-06 08:33 49.90705 20.03986 5190 ft 260 kts 330°
2026-05-06 08:33 49.92345 20.02785 5195 ft 261 kts 338°
2026-05-06 08:34 49.94056 20.01861 5195 ft 260 kts 342°
2026-05-06 08:34 49.97541 20.00465 5182 ft 260 kts 347°
2026-05-06 08:34 49.99316 19.99959 5185 ft 258 kts 356°
2026-05-06 08:35 50.01085 20.00413 5203 ft 263 kts 27°
2026-05-06 08:35 50.02473 20.02218 5218 ft 262 kts 58°
2026-05-06 08:35 50.03093 20.04863 5223 ft 262 kts 85°
2026-05-06 08:35 50.03171 20.07702 5201 ft 264 kts 87°
2026-05-06 08:36 50.03338 20.10510 5187 ft 263 kts 82°
2026-05-06 08:36 50.03624 20.13306 5191 ft 262 kts 80°
2026-05-06 08:36 50.03943 20.16102 5193 ft 263 kts 79°
2026-05-06 08:36 50.04280 20.18863 5181 ft 245 kts 79°
2026-05-06 08:37 50.04594 20.21268 5179 ft 211 kts 78°
2026-05-06 08:37 50.05076 20.23222 5117 ft 181 kts 48°
2026-05-06 08:37 50.06109 20.24200 4479 ft 180 kts
2026-05-06 08:37 50.07357 20.23970 3773 ft 178 kts 345°
2026-05-06 08:38 50.08496 20.23544 3437 ft 168 kts 347°
2026-05-06 08:38 50.09657 20.23245 2883 ft 171 kts 355°
2026-05-06 08:38 50.10853 20.23315 2448 ft 166 kts
2026-05-06 08:38 50.11959 20.23418 2161 ft 159 kts 354°
2026-05-06 08:39 50.13059 20.22980 1565 ft 168 kts 333°